QPF
0.00 0.00 0.00 0.01 0.02 0.02 0.01 0.01 0.02 0.02 0.04 0.07 0.06 0.05 0.05 0.04 0.06 0.06 0.03 0.00 0.00 0.00 0.00 0.01 0.01 0.00 0.00 0.00 0.00 0.00 0.00 0.00 0.00 0.00 0.00 0.00 0.00 0.00 0.00 0.01 0.01 0.01 0.01 0.01 0.01 0.01 0.01 0.01 0.01
0.00 0.00 0.00 0.01 0.01 0.01 0.02 0.01 0.02 0.04 0.06 0.06 0.07 0.05 0.04 0.04 0.03 0.02 0.01 0.00 0.00 0.00 0.00 0.00 0.01 0.00 0.00 0.00 0.00 0.00 0.00 0.00 0.00 0.00 0.00 0.00 0.00 0.00 0.01 0.01 0.01 0.01 0.01 0.01 0.01 0.01 0.01 0.01 0.01
0.00 0.00 0.00 0.01 0.01 0.01 0.01 0.01 0.02 0.04 0.05 0.06 0.08 0.05 0.03 0.03 0.02 0.01 0.01 0.00 0.00 0.00 0.00 0.00 0.01 0.00 0.00 0.00 0.00 0.00 0.00 0.00 0.00 0.00 0.00 0.00 0.00 0.01 0.01 0.01 0.01 0.01 0.01 0.01 0.01 0.01 0.01 0.01 0.01
0.00 0.00 0.01 0.01 0.01 0.00 0.00 0.01 0.02 0.03 0.04 0.05 0.06 0.05 0.04 0.02 0.02 0.02 0.01 0.01 0.00 0.00 0.00 0.00 0.01 0.00 0.00 0.00 0.00 0.00 0.00 0.00 0.00 0.00 0.01 0.01 0.01 0.01 0.01 0.01 0.01 0.01 0.01 0.01 0.01 0.01 0.01 0.01 0.01
0.00 0.00 0.00 0.00 0.00 0.00 0.00 0.01 0.02 0.03 0.03 0.03 0.04 0.05 0.05 0.03 0.03 0.03 0.03 0.01 0.00 0.01 0.00 0.00 0.01 0.01 0.00 0.01 0.01 0.00 0.00 0.01 0.01 0.01 0.01 0.01 0.01 0.01 0.01 0.01 0.01 0.01 0.00 0.00 0.01 0.01 0.01 0.01 0.01
0.00 0.00 0.00 0.00 0.00 0.00 0.01 0.01 0.02 0.04 0.04 0.03 0.03 0.03 0.03 0.04 0.05 0.06 0.03 0.01 0.01 0.01 0.01 0.01 0.01 0.01 0.00 0.01 0.01 0.01 0.01 0.01 0.01 0.01 0.01 0.02 0.01 0.01 0.01 0.01 0.01 0.01 0.01 0.01 0.01 0.01 0.01 0.01 0.01
0.00 0.00 0.00 0.00 0.00 0.00 0.01 0.01 0.00 0.01 0.02 0.02 0.01 0.01 0.02 0.04 0.08 0.07 0.04 0.03 0.02 0.02 0.02 0.01 0.01 0.01 0.01 0.02 0.02 0.02 0.02 0.02 0.01 0.01 0.01 0.02 0.02 0.01 0.01 0.01 0.01 0.01 0.01 0.01 0.01 0.01 0.01 0.01 0.02
0.00 0.00 0.00 0.00 0.00 0.00 0.01 0.01 0.01 0.01 0.02 0.02 0.01 0.01 0.01 0.03 0.09 0.12 0.13 0.11 0.08 0.05 0.06 0.04 0.03 0.03 0.02 0.02 0.02 0.02 0.02 0.02 0.02 0.02 0.02 0.03 0.02 0.02 0.03 0.02 0.02 0.02 0.01 0.01 0.01 0.01 0.01 0.01 0.01
0.00 0.00 0.00 0.00 0.00 0.00 0.00 0.00 0.01 0.01 0.02 0.02 0.01 0.00 0.00 0.02 0.08 0.15 0.20 0.13 0.09 0.10 0.10 0.07 0.04 0.03 0.03 0.04 0.03 0.03 0.03 0.03 0.03 0.03 0.03 0.03 0.02 0.02 0.02 0.01 0.02 0.02 0.02 0.01 0.01 0.02 0.03 0.02 0.02
0.00 0.00 0.00 0.00 0.00 0.00 0.00 0.00 0.00 0.01 0.03 0.04 0.01 0.00 0.01 0.03 0.07 0.11 0.15 0.11 0.07 0.08 0.09 0.07 0.05 0.04 0.04 0.04 0.04 0.04 0.03 0.03 0.03 0.03 0.03 0.02 0.01 0.01 0.01 0.01 0.02 0.02 0.03 0.03 0.03 0.03 0.03 0.02 0.01
0.00 0.00 0.00 0.00 0.00 0.00 0.00 0.00 0.00 0.01 0.01 0.01 0.00 0.01 0.02 0.03 0.09 0.14 0.15 0.14 0.09 0.07 0.07 0.07 0.04 0.04 0.03 0.03 0.02 0.02 0.03 0.03 0.03 0.03 0.02 0.01 0.01 0.01 0.01 0.01 0.03 0.04 0.03 0.02 0.02 0.03 0.02 0.02 0.02
0.00 0.00 0.00 0.00 0.00 0.00 0.00 0.00 0.00 0.01 0.01 0.00 0.01 0.02 0.04 0.04 0.07 0.12 0.14 0.12 0.12 0.13 0.12 0.10 0.09 0.06 0.04 0.02 0.02 0.02 0.02 0.02 0.02 0.02 0.01 0.01 0.01 0.01 0.01 0.01 0.01 0.03 0.02 0.01 0.02 0.02 0.03 0.03 0.02
0.00 0.00 0.00 0.00 0.00 0.00 0.00 0.00 0.00 0.01 0.01 0.00 0.01 0.03 0.06 0.07 0.09 0.12 0.14 0.16 0.21 0.19 0.12 0.08 0.08 0.08 0.05 0.04 0.04 0.03 0.03 0.02 0.01 0.01 0.01 0.01 0.01 0.02 0.02 0.01 0.01 0.01 0.01 0.01 0.01 0.02 0.02 0.03 0.02
0.00 0.00 0.00 0.00 0.00 0.00 0.00 0.00 0.00 0.01 0.02 0.01 0.01 0.03 0.05 0.10 0.12 0.14 0.17 0.22 0.22 0.17 0.12 0.08 0.07 0.07 0.06 0.05 0.05 0.05 0.03 0.02 0.01 0.01 0.02 0.01 0.01 0.01 0.02 0.02 0.01 0.01 0.01 0.01 0.01 0.01 0.01 0.01 0.02
0.00 0.00 0.00 0.00 0.00 0.00 0.00 0.00 0.00 0.01 0.02 0.02 0.02 0.03 0.06 0.10 0.13 0.17 0.18 0.23 0.25 0.20 0.16 0.12 0.10 0.09 0.08 0.09 0.08 0.07 0.05 0.02 0.01 0.02 0.02 0.02 0.01 0.01 0.02 0.02 0.01 0.02 0.02 0.01 0.02 0.02 0.01 0.01 0.03
0.00 0.00 0.00 0.00 0.00 0.00 0.00 0.00 0.00 0.01 0.01 0.02 0.01 0.02 0.05 0.11 0.17 0.25 0.19 0.21 0.23 0.21 0.20 0.17 0.12 0.12 0.13 0.12 0.12 0.10 0.05 0.03 0.03 0.02 0.02 0.02 0.01 0.01 0.01 0.01 0.01 0.01 0.01 0.02 0.02 0.02 0.03 0.02 0.02
0.00 0.00 0.00 0.00 0.00 0.00 0.00 0.00 0.00 0.01 0.01 0.01 0.01 0.03 0.07 0.13 0.14 0.18 0.17 0.26 0.31 0.29 0.28 0.22 0.17 0.14 0.13 0.12 0.11 0.12 0.08 0.05 0.04 0.02 0.02 0.02 0.01 0.01 0.02 0.01 0.01 0.01 0.01 0.02 0.01 0.01 0.02 0.02 0.01
0.00 0.00 0.00 0.00 0.00 0.00 0.00 0.00 0.00 0.01 0.01 0.01 0.02 0.03 0.06 0.11 0.10 0.10 0.14 0.23 0.28 0.35 0.35 0.26 0.22 0.18 0.15 0.14 0.14 0.12 0.10 0.06 0.04 0.03 0.01 0.02 0.02 0.02 0.01 0.01 0.00 0.00 0.01 0.01 0.01 0.01 0.01 0.01 0.01
0.00 0.00 0.00 0.00 0.00 0.00 0.00 0.00 0.00 0.00 0.01 0.01 0.01 0.03 0.04 0.07 0.11 0.15 0.17 0.23 0.26 0.34 0.37 0.31 0.28 0.29 0.20 0.13 0.10 0.09 0.07 0.05 0.04 0.03 0.02 0.02 0.02 0.01 0.01 0.00 0.00 0.00 0.00 0.00 0.00 0.00 0.00 0.00 0.00
0.00 0.00 0.00 0.00 0.00 0.00 0.01 0.01 0.01 0.01 0.01 0.01 0.02 0.03 0.05 0.08 0.12 0.14 0.18 0.24 0.26 0.27 0.35 0.34 0.32 0.28 0.23 0.15 0.10 0.10 0.08 0.06 0.06 0.04 0.02 0.01 0.01 0.01 0.00 0.00 0.00 0.00 0.00 0.00 0.00 0.00 0.00 0.00 0.00
0.00 0.00 0.00 0.00 0.00 0.00 0.01 0.01 0.01 0.02 0.02 0.02 0.02 0.02 0.03 0.06 0.10 0.12 0.14 0.20 0.25 0.22 0.27 0.28 0.32 0.27 0.22 0.18 0.13 0.11 0.10 0.08 0.05 0.04 0.03 0.02 0.01 0.01 0.00 0.00 0.00 0.00 0.00 0.00 0.00 0.00 0.00 0.00 0.00
0.00 0.00 0.00 0.00 0.00 0.01 0.01 0.01 0.02 0.03 0.02 0.01 0.01 0.01 0.02 0.04 0.08 0.10 0.10 0.11 0.18 0.18 0.21 0.23 0.26 0.23 0.18 0.15 0.10 0.06 0.06 0.04 0.03 0.03 0.02 0.02 0.01 0.01 0.01 0.01 0.00 0.00 0.00 0.00 0.00 0.00 0.00 0.00 0.00
0.00 0.00 0.00 0.00 0.00 0.00 0.00 0.00 0.01 0.02 0.01 0.01 0.01 0.01 0.02 0.03 0.05 0.07 0.08 0.07 0.08 0.13 0.16 0.20 0.21 0.20 0.14 0.11 0.09 0.07 0.05 0.03 0.04 0.03 0.02 0.01 0.01 0.01 0.01 0.00 0.00 0.00 0.00 0.00 0.00 0.00 0.00 0.00 0.00
0.00 0.00 0.00 0.00 0.00 0.00 0.00 0.00 0.00 0.01 0.01 0.01 0.01 0.01 0.01 0.02 0.03 0.06 0.08 0.06 0.08 0.11 0.11 0.17 0.18 0.14 0.12 0.08 0.06 0.06 0.05 0.04 0.03 0.02 0.02 0.02 0.02 0.01 0.00 0.00 0.00 0.00 0.00 0.00 0.00 0.00 0.00 0.00 0.00
0.00 0.00 0.00 0.00 0.00 0.00 0.00 0.00 0.00 0.00 0.00 0.00 0.00 0.01 0.01 0.01 0.02 0.05 0.09 0.07 0.08 0.11 0.09 0.12 0.13 0.09 0.09 0.07 0.05 0.05 0.05 0.04 0.02 0.01 0.01 0.01 0.01 0.00 0.00 0.00 0.00 0.00 0.00 0.00 0.00 0.00 0.00 0.00 0.00
0.00 0.00 0.01 0.01 0.00 0.00 0.00 0.00 0.00 0.01 0.00 0.01 0.01 0.01 0.01 0.02 0.02 0.03 0.05 0.05 0.10 0.11 0.09 0.09 0.09 0.07 0.06 0.05 0.05 0.05 0.05 0.04 0.02 0.01 0.01 0.01 0.00 0.00 0.00 0.00 0.00 0.00 0.00 0.00 0.00 0.00 0.00 0.00 0.00
0.00 0.00 0.01 0.01 0.01 0.00 0.00 0.00 0.00 0.00 0.00 0.00 0.00 0.04 0.05 0.02 0.02 0.02 0.03 0.03 0.05 0.06 0.05 0.06 0.05 0.05 0.04 0.04 0.04 0.04 0.04 0.04 0.02 0.01 0.01 0.01 0.01 0.00 0.00 0.00 0.00 0.00 0.00 0.00 0.00 0.00 0.00 0.00 0.00
0.00 0.00 0.01 0.02 0.02 0.01 0.01 0.01 0.00 0.00 0.00 0.00 0.00 0.01 0.02 0.02 0.01 0.01 0.02 0.02 0.03 0.03 0.03 0.04 0.03 0.04 0.04 0.04 0.04 0.04 0.04 0.03 0.01 0.01 0.01 0.01 0.01 0.00 0.00 0.00 0.00 0.00 0.00 0.00 0.00 0.00 0.00 0.00 0.00
0.00 0.00 0.01 0.01 0.02 0.02 0.01 0.01 0.00 0.00 0.00 0.00 0.00 0.00 0.01 0.01 0.01 0.01 0.02 0.01 0.02 0.02 0.03 0.03 0.03 0.04 0.04 0.03 0.03 0.03 0.03 0.02 0.01 0.01 0.01 0.00 0.00 0.00 0.00 0.00 0.00 0.00 0.00 0.00 0.00 0.00 0.00 0.00 0.00
0.00 0.00 0.01 0.01 0.01 0.01 0.01 0.00 0.00 0.00 0.00 0.00 0.00 0.00 0.00 0.00 0.01 0.01 0.01 0.01 0.01 0.02 0.02 0.02 0.03 0.03 0.03 0.03 0.04 0.03 0.03 0.02 0.01 0.01 0.00 0.00 0.00 0.00 0.00 0.00 0.00 0.00 0.00 0.00 0.00 0.00 0.00 0.00 0.00
MSLP
1008.61 1009.53 1010.57 1011.59 1012.42 1012.97 1013.19 1013.12 1012.84 1012.45 1012.08 1011.79 1011.63 1011.56 1011.54 1011.49 1011.37 1011.14 1010.84 1010.53 1010.28 1010.17 1010.25 1010.52 1010.97 1011.50 1012.05 1012.53 1012.89 1013.13 1013.26 1013.33 1013.38 1013.45 1013.57 1013.73 1013.89 1014.02 1014.10 1014.12 1014.09 1014.03 1013.98 1013.97 1014.03 1014.15 1014.32 1014.51 1014.69
1009.02 1010.08 1011.17 1012.11 1012.78 1013.11 1013.09 1012.79 1012.32 1011.81 1011.38 1011.10 1010.97 1010.97 1011.00 1011.00 1010.90 1010.69 1010.41 1010.12 1009.90 1009.84 1009.99 1010.35 1010.87 1011.48 1012.09 1012.63 1013.04 1013.32 1013.49 1013.60 1013.68 1013.79 1013.92 1014.08 1014.23 1014.35 1014.41 1014.40 1014.35 1014.28 1014.23 1014.23 1014.30 1014.43 1014.60 1014.78 1014.95
1009.54 1010.67 1011.73 1012.54 1013.00 1013.08 1012.81 1012.29 1011.67 1011.08 1010.64 1010.40 1010.35 1010.43 1010.55 1010.61 1010.56 1010.39 1010.13 1009.86 1009.68 1009.67 1009.87 1010.28 1010.85 1011.51 1012.17 1012.74 1013.20 1013.52 1013.72 1013.87 1013.98 1014.11 1014.26 1014.41 1014.54 1014.63 1014.67 1014.64 1014.58 1014.51 1014.47 1014.49 1014.57 1014.71 1014.88 1015.05 1015.21
1010.11 1011.25 1012.21 1012.84 1013.07 1012.90 1012.39 1011.69 1010.96 1010.33 1009.92 1009.76 1009.81 1009.99 1010.20 1010.34 1010.35 1010.22 1009.99 1009.77 1009.62 1009.65 1009.89 1010.33 1010.93 1011.61 1012.28 1012.87 1013.34 1013.68 1013.92 1014.10 1014.25 1014.39 1014.55 1014.69 1014.81 1014.88 1014.90 1014.86 1014.80 1014.74 1014.73 1014.77 1014.87 1015.01 1015.18 1015.35 1015.49
1010.67 1011.75 1012.56 1012.98 1012.97 1012.56 1011.87 1011.04 1010.25 1009.64 1009.29 1009.23 1009.38 1009.67 1009.96 1010.17 1010.24 1010.15 1009.98 1009.80 1009.70 1009.77 1010.04 1010.50 1011.10 1011.77 1012.42 1012.99 1013.46 1013.81 1014.06 1014.26 1014.44 1014.62 1014.79 1014.94 1015.06 1015.12 1015.13 1015.09 1015.04 1015.01 1015.02 1015.08 1015.20 1015.35 1015.51 1015.66 1015.78
1011.15 1012.11 1012.72 1012.92 1012.69 1012.09 1011.27 1010.39 1009.60 1009.05 1008.80 1008.84 1009.09 1009.46 1009.82 1010.08 1010.19 1010.15 1010.03 1009.91 1009.87 1009.99 1010.28 1010.75 1011.34 1011.97 1012.57 1013.10 1013.53 1013.87 1014.13 1014.36 1014.57 1014.78 1014.99 1015.16 1015.29 1015.36 1015.38 1015.35 1015.32 1015.31 1015.35 1015.43 1015.56 1015.71 1015.86 1015.99 1016.08
1011.48 1012.26 1012.66 1012.64 1012.22 1011.50 1010.63 1009.75 1009.04 1008.60 1008.46 1008.60 1008.94 1009.36 1009.75 1010.03 1010.16 1010.17 1010.10 1010.04 1010.07 1010.24 1010.57 1011.04 1011.60 1012.17 1012.71 1013.18 1013.57 1013.88 1014.15 1014.41 1014.66 1014.92 1015.17 1015.38 1015.54 1015.63 1015.67 1015.66 1015.65 1015.66 1015.71 1015.81 1015.94 1016.09 1016.21 1016.31 1016.38
1011.60 1012.17 1012.35 1012.14 1011.59 1010.81 1009.95 1009.17 1008.58 1008.28 1008.27 1008.51 1008.90 1009.34 1009.73 1010.01 1010.14 1010.17 1010.16 1010.17 1010.27 1010.50 1010.86 1011.33 1011.85 1012.37 1012.84 1013.24 1013.58 1013.87 1014.15 1014.43 1014.74 1015.05 1015.36 1015.62 1015.82 1015.94 1016.00 1016.01 1016.01 1016.04 1016.10 1016.20 1016.32 1016.45 1016.55 1016.62 1016.66
1011.49 1011.84 1011.82 1011.46 1010.83 1010.06 1009.28 1008.64 1008.22 1008.08 1008.21 1008.53 1008.96 1009.39 1009.75 1010.00 1010.12 1010.16 1010.19 1010.26 1010.43 1010.73 1011.13 1011.60 1012.09 1012.56 1012.96 1013.31 1013.60 1013.87 1014.16 1014.47 1014.83 1015.21 1015.57 1015.89 1016.13 1016.28 1016.36 1016.38 1016.39 1016.42 1016.47 1016.57 1016.68 1016.79 1016.87 1016.91 1016.92
1011.16 1011.31 1011.12 1010.65 1010.00 1009.29 1008.65 1008.19 1007.96 1008.00 1008.25 1008.65 1009.09 1009.49 1009.80 1010.00 1010.09 1010.14 1010.19 1010.32 1010.56 1010.91 1011.34 1011.83 1012.30 1012.72 1013.08 1013.38 1013.64 1013.90 1014.20 1014.56 1014.97 1015.40 1015.82 1016.18 1016.45 1016.63 1016.72 1016.75 1016.76 1016.78 1016.82 1016.91 1017.01 1017.10 1017.17 1017.19 1017.19
1010.67 1010.65 1010.33 1009.80 1009.18 1008.57 1008.10 1007.84 1007.81 1008.01 1008.38 1008.82 1009.26 1009.62 1009.87 1010.00 1010.06 1010.10 1010.18 1010.35 1010.64 1011.03 1011.50 1011.99 1012.46 1012.86 1013.19 1013.47 1013.72 1013.98 1014.30 1014.69 1015.14 1015.61 1016.07 1016.46 1016.76 1016.95 1017.05 1017.08 1017.08 1017.09 1017.14 1017.21 1017.30 1017.39 1017.45 1017.47 1017.46
1010.15 1009.98 1009.58 1009.03 1008.47 1007.99 1007.69 1007.61 1007.76 1008.10 1008.55 1009.02 1009.44 1009.75 1009.93 1010.01 1010.02 1010.05 1010.14 1010.34 1010.66 1011.09 1011.59 1012.09 1012.56 1012.96 1013.29 1013.56 1013.82 1014.10 1014.44 1014.85 1015.32 1015.82 1016.29 1016.70 1017.01 1017.21 1017.31 1017.35 1017.35 1017.36 1017.40 1017.48 1017.57 1017.67 1017.74 1017.77 1017.77
1009.68 1009.42 1008.97 1008.44 1007.96 1007.60 1007.45 1007.53 1007.82 1008.25 1008.74 1009.22 1009.60 1009.85 1009.97 1010.00 1009.97 1009.98 1010.07 1010.28 1010.62 1011.07 1011.58 1012.10 1012.58 1013.00 1013.34 1013.64 1013.93 1014.23 1014.60 1015.02 1015.50 1016.00 1016.47 1016.87 1017.18 1017.38 1017.49 1017.54 1017.56 1017.58 1017.64 1017.72 1017.83 1017.93 1018.02 1018.07 1018.09
1009.39 1009.07 1008.61 1008.12 1007.71 1007.47 1007.44 1007.62 1007.98 1008.45 1008.95 1009.39 1009.72 1009.91 1009.98 1009.95 1009.89 1009.88 1009.96 1010.16 1010.50 1010.95 1011.47 1012.00 1012.50 1012.95 1013.34 1013.69 1014.02 1014.36 1014.75 1015.18 1015.65 1016.13 1016.58 1016.96 1017.26 1017.47 1017.59 1017.66 1017.71 1017.76 1017.84 1017.95 1018.07 1018.20 1018.31 1018.39 1018.42
1009.29 1008.95 1008.51 1008.08 1007.75 1007.59 1007.63 1007.86 1008.24 1008.69 1009.14 1009.52 1009.78 1009.91 1009.93 1009.86 1009.78 1009.75 1009.81 1010.00 1010.32 1010.75 1011.26 1011.80 1012.33 1012.83 1013.28 1013.69 1014.08 1014.47 1014.88 1015.31 1015.76 1016.21 1016.62 1016.98 1017.27 1017.49 1017.64 1017.74 1017.83 1017.92 1018.03 1018.17 1018.32 1018.46 1018.59 1018.68 1018.74
1009.38 1009.05 1008.66 1008.29 1008.03 1007.94 1008.01 1008.24 1008.58 1008.96 1009.32 1009.61 1009.79 1009.86 1009.83 1009.74 1009.65 1009.60 1009.64 1009.81 1010.10 1010.50 1010.99 1011.53 1012.09 1012.64 1013.16 1013.65 1014.11 1014.56 1014.99 1015.43 1015.85 1016.26 1016.64 1016.97 1017.25 1017.47 1017.65 1017.81 1017.94 1018.08 1018.23 1018.39 1018.55 1018.70 1018.84 1018.94 1019.01
1009.59 1009.29 1008.96 1008.68 1008.50 1008.45 1008.53 1008.71 1008.97 1009.24 1009.49 1009.67 1009.76 1009.77 1009.72 1009.62 1009.52 1009.47 1009.50 1009.63 1009.88 1010.25 1010.71 1011.25 1011.83 1012.43 1013.02 1013.60 1014.14 1014.64 1015.11 1015.55 1015.95 1016.32 1016.66 1016.96 1017.23 1017.47 1017.69 1017.89 1018.08 1018.27 1018.44 1018.62 1018.77 1018.92 1019.04 1019.14 1019.22
1009.79 1009.56 1009.33 1009.15 1009.05 1009.05 1009.12 1009.24 1009.39 1009.53 1009.64 1009.71 1009.72 1009.68 1009.61 1009.52 1009.44 1009.40 1009.43 1009.53 1009.74 1010.06 1010.49 1011.01 1011.60 1012.25 1012.91 1013.56 1014.18 1014.75 1015.26 1015.70 1016.09 1016.42 1016.73 1017.01 1017.27 1017.53 1017.78 1018.03 1018.26 1018.48 1018.67 1018.84 1018.98 1019.10 1019.20 1019.28 1019.35
1009.88 1009.75 1009.65 1009.61 1009.61 1009.66 1009.73 1009.79 1009.83 1009.83 1009.81 1009.76 1009.69 1009.62 1009.55 1009.49 1009.45 1009.44 1009.47 1009.56 1009.73 1010.00 1010.38 1010.87 1011.47 1012.14 1012.86 1013.58 1014.27 1014.90 1015.45 1015.90 1016.28 1016.59 1016.87 1017.13 1017.39 1017.66 1017.94 1018.22 1018.48 1018.72 1018.91 1019.06 1019.17 1019.24 1019.30 1019.36 1019.41
1009.80 1009.81 1009.87 1009.99 1010.12 1010.24 1010.32 1010.33 1010.26 1010.14 1009.98 1009.83 1009.69 1009.60 1009.56 1009.55 1009.57 1009.61 1009.67 1009.76 1009.90 1010.12 1010.45 1010.90 1011.47 1012.15 1012.90 1013.67 1014.41 1015.09 1015.67 1016.15 1016.53 1016.83 1017.09 1017.34 1017.60 1017.87 1018.17 1018.46 1018.74 1018.97 1019.15 1019.27 1019.33 1019.36 1019.38 1019.40 1019.44
1009.54 1009.71 1009.97 1010.28 1010.57 1010.78 1010.88 1010.85 1010.69 1010.45 1010.17 1009.92 1009.74 1009.64 1009.64 1009.70 1009.80 1009.90 1010.01 1010.12 1010.24 1010.42 1010.69 1011.09 1011.62 1012.28 1013.02 1013.81 1014.59 1015.31 1015.92 1016.42 1016.80 1017.11 1017.36 1017.60 1017.85 1018.13 1018.43 1018.72 1018.99 1019.22 1019.37 1019.45 1019.48 1019.46 1019.44 1019.43 1019.46
1009.16 1009.53 1010.01 1010.52 1010.97 1011.29 1011.42 1011.35 1011.11 1010.75 1010.37 1010.03 1009.81 1009.72 1009.76 1009.89 1010.09 1010.29 1010.46 1010.60 1010.72 1010.87 1011.09 1011.41 1011.88 1012.49 1013.21 1014.00 1014.78 1015.52 1016.16 1016.67 1017.08 1017.39 1017.64 1017.87 1018.12 1018.39 1018.68 1018.96 1019.22 1019.43 1019.56 1019.61 1019.60 1019.55 1019.50 1019.48 1019.50
1008.79 1009.36 1010.06 1010.77 1011.37 1011.78 1011.94 1011.83 1011.50 1011.04 1010.55 1010.13 1009.86 1009.78 1009.87 1010.09 1010.39 1010.69 1010.94 1011.13 1011.27 1011.40 1011.56 1011.82 1012.22 1012.76 1013.43 1014.17 1014.95 1015.68 1016.34 1016.87 1017.29 1017.62 1017.88 1018.11 1018.35 1018.61 1018.88 1019.15 1019.39 1019.58 1019.69 1019.72 1019.70 1019.64 1019.58 1019.56 1019.59
1008.52 1009.30 1010.20 1011.07 1011.80 1012.28 1012.43 1012.27 1011.85 1011.28 1010.68 1010.19 1009.87 1009.79 1009.92 1010.23 1010.63 1011.03 1011.38 1011.63 1011.80 1011.92 1012.05 1012.24 1012.56 1013.02 1013.62 1014.32 1015.06 1015.78 1016.43 1016.99 1017.42 1017.76 1018.04 1018.27 1018.51 1018.75 1019.01 1019.26 1019.48 1019.66 1019.76 1019.80 1019.78 1019.73 1019.68 1019.68 1019.73
1008.46 1009.41 1010.46 1011.46 1012.26 1012.75 1012.88 1012.64 1012.12 1011.43 1010.73 1010.15 1009.79 1009.71 1009.88 1010.25 1010.74 1011.25 1011.69 1012.02 1012.24 1012.37 1012.48 1012.62 1012.87 1013.25 1013.78 1014.41 1015.10 1015.80 1016.45 1017.01 1017.46 1017.82 1018.11 1018.35 1018.58 1018.81 1019.05 1019.28 1019.49 1019.66 1019.78 1019.83 1019.84 1019.82 1019.80 1019.82 1019.89
1008.60 1009.68 1010.83 1011.88 1012.69 1013.15 1013.21 1012.88 1012.25 1011.45 1010.65 1010.00 1009.60 1009.51 1009.71 1010.14 1010.71 1011.31 1011.85 1012.26 1012.53 1012.69 1012.80 1012.91 1013.11 1013.43 1013.88 1014.45 1015.09 1015.76 1016.39 1016.95 1017.42 1017.79 1018.09 1018.34 1018.57 1018.78 1019.01 1019.23 1019.44 1019.61 1019.74 1019.83 1019.88 1019.91 1019.93 1019.98 1020.08
1008.91 1010.05 1011.22 1012.26 1013.01 1013.39 1013.35 1012.92 1012.19 1011.30 1010.43 1009.72 1009.29 1009.19 1009.42 1009.90 1010.53 1011.21 1011.83 1012.32 1012.66 1012.87 1012.99 1013.11 1013.28 1013.55 1013.94 1014.45 1015.05 1015.68 1016.30 1016.85 1017.33 1017.71 1018.02 1018.27 1018.49 1018.70 1018.91 1019.12 1019.33 1019.52 1019.68 1019.80 1019.90 1019.98 1020.05 1020.14 1020.25
1009.27 1010.40 1011.52 1012.46 1013.12 1013.38 1013.23 1012.70 1011.89 1010.95 1010.04 1009.31 1008.88 1008.79 1009.03 1009.54 1010.23 1010.96 1011.65 1012.21 1012.62 1012.89 1013.06 1013.20 1013.37 1013.62 1013.98 1014.45 1015.00 1015.60 1016.19 1016.74 1017.21 1017.60 1017.91 1018.17 1018.38 1018.58 1018.78 1018.99 1019.19 1019.39 1019.58 1019.75 1019.90 1020.03 1020.15 1020.27 1020.39
1009.55 1010.60 1011.59 1012.39 1012.90 1013.03 1012.78 1012.18 1011.34 1010.39 1009.49 1008.79 1008.38 1008.32 1008.58 1009.12 1009.83 1010.60 1011.34 1011.97 1012.45 1012.78 1013.01 1013.19 1013.39 1013.65 1014.00 1014.44 1014.97 1015.53 1016.10 1016.63 1017.09 1017.48 1017.79 1018.04 1018.25 1018.45 1018.64 1018.83 1019.04 1019.26 1019.47 1019.67 1019.86 1020.04 1020.20 1020.34 1020.48
1009.65 1010.55 1011.37 1011.99 1012.33 1012.34 1012.00 1011.37 1010.55 1009.65 1008.82 1008.19 1007.84 1007.81 1008.10 1008.64 1009.36 1010.15 1010.92 1011.59 1012.13 1012.54 1012.84 1013.09 1013.34 1013.62 1013.98 1014.42 1014.93 1015.47 1016.01 1016.52 1016.97 1017.35 1017.65 1017.90 1018.11 1018.29 1018.48 1018.67 1018.88 1019.10 1019.33 1019.56 1019.78 1019.99 1020.18 1020.34 1020.49
Thickness
5813 5810 5805 5794 5774 5756 5755 5768 5777 5780 5783 5791 5794 5791 5785 5780 5772 5769 5790 5798 5794 5789 5784 5780 5777 5774 5771 5769 5768 5766 5765 5764 5763 5763 5762 5761 5760 5759 5758 5758 5757 5756 5755 5754 5753 5752 5751 5750 5750
5812 5807 5797 5782 5759 5744 5753 5773 5777 5785 5791 5794 5793 5790 5784 5782 5788 5787 5790 5794 5793 5787 5783 5779 5776 5773 5770 5768 5766 5765 5763 5762 5761 5760 5759 5759 5758 5757 5756 5755 5755 5754 5753 5752 5751 5750 5749 5748 5747
5810 5804 5784 5767 5754 5748 5761 5779 5784 5792 5798 5794 5788 5788 5784 5781 5787 5788 5792 5793 5790 5785 5781 5778 5774 5771 5768 5766 5764 5763 5761 5760 5759 5758 5757 5756 5755 5754 5753 5752 5752 5751 5750 5749 5748 5747 5746 5745 5745
5804 5789 5776 5759 5754 5765 5776 5787 5790 5789 5792 5794 5788 5781 5784 5791 5792 5792 5792 5789 5785 5782 5780 5776 5773 5769 5766 5764 5762 5760 5758 5757 5756 5755 5755 5754 5752 5751 5750 5749 5749 5748 5747 5746 5745 5744 5743 5743 5742
5796 5777 5760 5748 5755 5772 5787 5795 5796 5788 5787 5789 5786 5777 5777 5788 5793 5792 5788 5785 5781 5778 5777 5774 5771 5768 5764 5762 5760 5757 5756 5755 5754 5753 5752 5751 5750 5748 5747 5746 5746 5745 5744 5743 5742 5742 5741 5740 5740
5779 5767 5746 5741 5756 5776 5789 5798 5796 5789 5786 5788 5783 5774 5773 5784 5786 5785 5785 5781 5779 5776 5774 5771 5768 5765 5763 5760 5758 5755 5754 5752 5751 5750 5749 5748 5747 5746 5745 5744 5742 5742 5741 5740 5740 5739 5739 5738 5737
5772 5758 5749 5752 5757 5769 5788 5798 5792 5787 5784 5785 5786 5770 5770 5777 5781 5782 5780 5777 5775 5772 5770 5768 5765 5762 5760 5758 5755 5753 5752 5750 5749 5748 5747 5746 5744 5743 5742 5741 5739 5738 5738 5737 5737 5736 5736 5735 5735
5780 5760 5753 5752 5758 5768 5789 5795 5795 5790 5785 5792 5787 5770 5767 5775 5779 5778 5775 5772 5770 5768 5766 5765 5762 5760 5757 5755 5753 5751 5749 5748 5747 5746 5745 5743 5742 5740 5739 5738 5737 5736 5735 5735 5734 5734 5733 5733 5732
5782 5752 5742 5754 5761 5773 5788 5786 5788 5795 5788 5786 5786 5782 5781 5780 5777 5772 5766 5764 5763 5762 5762 5761 5760 5757 5755 5753 5750 5748 5747 5746 5744 5743 5742 5741 5739 5738 5736 5735 5734 5733 5733 5732 5732 5731 5730 5730 5730
5770 5746 5755 5771 5777 5779 5784 5784 5783 5782 5776 5775 5777 5780 5781 5776 5771 5766 5762 5759 5758 5757 5757 5756 5756 5755 5752 5750 5748 5746 5745 5743 5742 5740 5739 5738 5736 5735 5733 5732 5731 5731 5730 5730 5729 5729 5728 5727 5727
5769 5760 5772 5780 5786 5785 5781 5781 5784 5776 5768 5775 5775 5773 5772 5769 5764 5761 5759 5758 5757 5756 5754 5753 5752 5751 5749 5747 5745 5743 5742 5740 5739 5737 5736 5735 5733 5732 5731 5730 5729 5728 5728 5727 5727 5726 5725 5725 5724
5771 5775 5781 5785 5789 5785 5782 5782 5778 5776 5778 5788 5784 5776 5770 5764 5760 5758 5755 5754 5753 5752 5750 5750 5749 5748 5746 5744 5742 5741 5739 5738 5736 5735 5734 5732 5731 5729 5728 5727 5726 5726 5725 5725 5724 5724 5723 5722 5722
5772 5777 5785 5788 5787 5785 5783 5778 5777 5776 5783 5785 5780 5771 5765 5762 5758 5755 5752 5751 5750 5748 5747 5746 5745 5744 5743 5741 5740 5738 5737 5736 5734 5733 5731 5730 5728 5727 5726 5724 5724 5723 5723 5722 5722 5722 5721 5720 5720
5778 5779 5781 5783 5783 5784 5777 5775 5773 5775 5780 5776 5771 5765 5762 5758 5754 5749 5747 5746 5746 5745 5744 5743 5742 5742 5740 5738 5736 5735 5735 5734 5732 5731 5730 5728 5727 5725 5724 5722 5722 5721 5721 5721 5721 5720 5720 5719 5718
5780 5772 5772 5778 5780 5779 5775 5763 5768 5776 5775 5768 5764 5761 5757 5754 5751 5747 5746 5744 5743 5741 5740 5739 5739 5739 5738 5736 5734 5732 5732 5731 5730 5729 5728 5726 5725 5724 5722 5721 5720 5720 5720 5720 5719 5718 5718 5717 5716
5769 5759 5752 5768 5776 5776 5767 5752 5770 5774 5769 5761 5759 5756 5752 5749 5747 5747 5745 5742 5740 5738 5736 5736 5738 5735 5734 5733 5731 5730 5729 5729 5728 5727 5726 5725 5724 5723 5721 5720 5719 5719 5719 5718 5718 5716 5715 5714 5714
5745 5739 5745 5758 5772 5771 5762 5754 5767 5770 5765 5757 5755 5752 5748 5745 5744 5744 5744 5741 5738 5735 5733 5733 5734 5733 5732 5731 5729 5727 5727 5726 5725 5725 5724 5723 5723 5722 5720 5719 5718 5718 5717 5716 5717 5714 5713 5712 5711
5734 5738 5743 5748 5764 5765 5756 5754 5763 5765 5762 5755 5752 5749 5745 5743 5743 5743 5741 5739 5736 5733 5731 5730 5730 5729 5729 5728 5726 5724 5723 5723 5723 5722 5722 5722 5721 5720 5719 5718 5717 5716 5716 5715 5714 5712 5711 5710 5710
5746 5742 5738 5751 5768 5761 5754 5753 5758 5761 5758 5753 5750 5747 5744 5742 5742 5740 5738 5736 5733 5730 5728 5727 5727 5726 5726 5725 5722 5721 5720 5720 5720 5720 5720 5720 5720 5719 5718 5716 5715 5715 5714 5713 5712 5711 5709 5708 5708
5743 5737 5738 5752 5766 5759 5750 5750 5756 5758 5756 5755 5751 5747 5744 5740 5737 5736 5734 5732 5730 5728 5726 5725 5725 5725 5724 5724 5723 5722 5720 5718 5718 5718 5718 5719 5718 5717 5717 5715 5714 5713 5712 5711 5711 5710 5708 5706 5705
5741 5737 5741 5744 5753 5754 5747 5742 5748 5755 5756 5755 5753 5749 5745 5741 5738 5736 5733 5731 5728 5726 5725 5724 5723 5724 5723 5722 5721 5719 5717 5715 5714 5715 5715 5716 5717 5716 5716 5714 5713 5712 5711 5710 5710 5709 5708 5705 5703
5735 5753 5751 5747 5735 5726 5735 5717 5739 5747 5748 5749 5748 5747 5745 5742 5739 5736 5734 5731 5729 5727 5725 5723 5722 5722 5722 5721 5720 5718 5716 5714 5714 5714 5714 5714 5715 5715 5714 5713 5712 5711 5710 5709 5709 5708 5708 5706 5702
5748 5757 5751 5744 5731 5721 5725 5715 5727 5740 5739 5744 5746 5746 5745 5742 5739 5737 5735 5733 5731 5728 5725 5722 5721 5720 5721 5721 5720 5718 5716 5715 5713 5713 5712 5712 5712 5713 5713 5712 5711 5710 5709 5708 5708 5707 5706 5705 5703
5758 5748 5735 5723 5716 5706 5720 5712 5718 5731 5741 5746 5748 5747 5745 5743 5740 5736 5734 5732 5730 5727 5724 5722 5720 5720 5721 5720 5720 5718 5717 5714 5712 5711 5710 5710 5710 5710 5711 5710 5709 5708 5707 5707 5706 5705 5705 5704 5702
5747 5723 5701 5699 5690 5697 5717 5712 5721 5747 5752 5753 5751 5749 5747 5744 5740 5736 5733 5730 5728 5726 5725 5723 5721 5720 5720 5720 5720 5719 5717 5716 5714 5712 5711 5710 5709 5709 5709 5709 5708 5707 5706 5705 5704 5703 5702 5702 5700
5737 5725 5699 5689 5686 5696 5711 5709 5734 5756 5759 5758 5756 5752 5748 5744 5741 5738 5735 5731 5729 5727 5726 5724 5722 5720 5720 5720 5719 5719 5718 5717 5715 5714 5713 5711 5711 5710 5709 5708 5707 5706 5705 5703 5702 5701 5700 5699 5698
5730 5721 5723 5701 5696 5692 5702 5718 5740 5754 5753 5753 5751 5749 5745 5743 5742 5740 5736 5733 5730 5728 5727 5726 5723 5721 5720 5720 5719 5717 5717 5717 5715 5714 5713 5712 5711 5710 5708 5706 5705 5704 5703 5701 5700 5699 5697 5696 5695
5739 5724 5707 5696 5686 5684 5701 5711 5722 5743 5746 5747 5747 5747 5745 5744 5742 5740 5738 5735 5732 5730 5728 5726 5725 5723 5722 5721 5719 5718 5717 5717 5716 5714 5712 5711 5710 5709 5707 5705 5704 5702 5701 5699 5698 5696 5695 5694 5692
5722 5716 5706 5694 5694 5685 5685 5707 5745 5747 5750 5748 5749 5750 5748 5745 5743 5742 5740 5737 5734 5732 5729 5727 5726 5724 5722 5721 5720 5718 5717 5716 5715 5714 5713 5711 5710 5708 5706 5704 5702 5700 5699 5697 5695 5694 5692 5691 5689
5727 5718 5705 5696 5691 5690 5688 5709 5755 5754 5753 5751 5751 5752 5751 5749 5745 5743 5741 5738 5734 5732 5730 5729 5727 5725 5724 5722 5720 5719 5717 5716 5714 5713 5712 5711 5709 5707 5705 5703 5701 5699 5697 5695 5694 5692 5690 5689 5686